Weather History for Middletown, OH

Change the Weather History Date:

Thursday, September 4, 2014

  Actual Average (KDAY) Record (KDAY)
Temperature  
Mean Temperature 75 °F 70 °F  
Max Temperature 89 °F 80 °F 95 °F (1925)
Min Temperature 61 °F 59 °F 42 °F (1997)
Degree Days  
Heating Degree Days 0 1  
Month to date heating degree days 4  
Since 1 July heating degree days 6  
Cooling Degree Days 10 5  
Month to date cooling degree days 23  
Year to date cooling degree days 805  
Growing Degree Days 25 (Base 50)    
Moisture  
Dew Point 65 °F    
Average Humidity 72    
Maximum Humidity 90    
Minimum Humidity 39    
Precipitation  
Precipitation 0.00 in 0.11 in 2.27 in (2011)
Month to date precipitation 0.46  
Year to date precipitation 28.77  
Snow  
Snow 0.00 in 0.00 in 0.00 in ()
Month to date snowfall 0.0  
Since 1 July snowfall 0.0  
Since 1 September snowfall 0.0  
Snow Depth -    
Sea Level Pressure  
Sea Level Pressure 30.10 in    
Wind  
Wind Speed 1 mph (SW)    
Max Wind Speed 8 mph    
Max Gust Speed -    
Visibility 7 miles    
Events      
T = Trace of Precipitation, MM = Missing Value Source: NWS Daily Summary

Daily Weather History Graph

Daily Weather History Graph

Search for Another Location

Airport:

Trip Planner

Search our weather history database for the weather conditions in past years. The results will help you decide how hot, cold, wet, or windy it might be!

Date:

Astronomy

Sep. 04, 2014 Rise Set
Actual Time 7:08 AM EDT 8:03 PM EDT
Civil Twilight 6:41 AM EDT 8:31 PM EDT
Nautical Twilight 6:08 AM EDT 9:03 PM EDT
Astronomical Twilight 5:34 AM EDT 9:37 PM EDT
Moon 4:40 PM EDT (9/4) 1:59 AM EDT (9/4)
Length of Visible Light 13h 50m
Length of Day
12h 55m
Waxing Gibbous, 74% of the Moon is Illuminated
Sep 4
Waxing Gibbous
Sep 8
Full
Sep 15
Last Quarter
Sep 24
New
Oct 1
First Quarter

Hourly Weather History & Observations

Time (EDT) Temp. Heat Index Dew Point Humidity Pressure Visibility Wind Dir Wind Speed Gust Speed Precip Events Conditions
12:15 AM 69.1 °F - 65.3 °F 88% 30.11 in 7.0 mi Calm Calm - N/A   Clear
12:35 AM 69.4 °F - 65.7 °F 88% 30.11 in 7.0 mi Calm Calm - N/A   Clear
12:55 AM 67.1 °F - 63.3 °F 88% 30.11 in 5.0 mi Calm Calm - N/A   Clear
1:15 AM 67.1 °F - 63.5 °F 88% 30.10 in 5.0 mi Calm Calm - N/A   Clear
1:35 AM 67.1 °F - 63.5 °F 88% 30.10 in 5.0 mi Calm Calm - N/A   Clear
1:55 AM 64.4 °F - 61.0 °F 89% 30.10 in 7.0 mi Calm Calm - N/A   Clear
2:15 AM 64.4 °F - 61.0 °F 89% 30.10 in 7.0 mi Calm Calm - N/A   Clear
2:35 AM 64.4 °F - 61.0 °F 89% 30.10 in 5.0 mi Calm Calm - N/A   Clear
2:55 AM 64.4 °F - 61.0 °F 89% 30.11 in 4.0 mi Calm Calm - N/A   Clear
3:15 AM 64.4 °F - 61.0 °F 89% 30.10 in 5.0 mi Calm Calm - N/A   Clear
3:35 AM 64.4 °F - 61.2 °F 89% 30.11 in 3.0 mi Calm Calm - N/A   Clear
3:55 AM 64.0 °F - 60.6 °F 89% 30.11 in 5.0 mi Calm Calm - N/A   Clear
4:15 AM 63.1 °F - 59.9 °F 89% 30.11 in 5.0 mi Calm Calm - N/A   Clear
4:35 AM 62.6 °F - 59.4 °F 89% 30.11 in 4.0 mi Calm Calm - N/A   Clear
4:55 AM 62.6 °F - 59.4 °F 89% 30.11 in 4.0 mi Calm Calm - N/A   Clear
5:15 AM 63.0 °F - 59.7 °F 89% 30.10 in 5.0 mi Calm Calm - N/A   Clear
5:35 AM 62.6 °F - 59.4 °F 89% 30.10 in 2.5 mi Calm Calm - N/A   Clear
5:55 AM 61.9 °F - 58.6 °F 89% 30.10 in 2.5 mi Calm Calm - N/A   Clear
6:15 AM 61.9 °F - 58.6 °F 89% 30.10 in 5.0 mi Calm Calm - N/A   Clear
6:35 AM 61.9 °F - 58.8 °F 90% 30.09 in 4.0 mi Calm Calm - N/A   Clear
6:55 AM 61.9 °F - 58.6 °F 89% 30.09 in 2.5 mi Calm Calm - N/A   Clear
7:15 AM 61.9 °F - 58.8 °F 90% 30.10 in 1.5 mi Calm Calm - N/A   Mist
7:35 AM 61.9 °F - 59.0 °F 90% 30.09 in 2.5 mi Calm Calm - N/A   Clear
7:55 AM 62.6 °F - 59.5 °F 90% 30.09 in 4.0 mi Calm Calm - N/A   Clear
8:15 AM 64.6 °F - 61.3 °F 89% 30.10 in 5.0 mi Calm Calm - N/A   Clear
8:35 AM 69.4 °F - 66.2 °F 89% 30.11 in 5.0 mi Calm Calm - N/A   Clear
8:55 AM 69.4 °F - 66.2 °F 89% 30.11 in 5.0 mi Calm Calm - N/A   Clear
9:15 AM 72.1 °F - 67.1 °F 84% 30.11 in 5.0 mi Calm Calm - N/A   Haze
9:35 AM 74.5 °F - 68.0 °F 80% 30.11 in 5.0 mi Calm Calm - N/A   Haze
9:55 AM 74.5 °F - 66.7 °F 77% 30.12 in 7.0 mi SSW 4.6 mph - N/A   Clear
10:15 AM 77.2 °F - 68.4 °F 74% 30.13 in 7.0 mi WSW 5.8 mph - N/A   Clear
10:35 AM 78.4 °F - 68.4 °F 71% 30.14 in 7.0 mi SSW 5.8 mph - N/A   Clear
10:55 AM 79.7 °F - 68.4 °F 68% 30.14 in 10.0 mi South 5.8 mph - N/A   Clear
11:15 AM 81.0 °F 83.9 °F 68.5 °F 66% 30.15 in 10.0 mi SW 6.9 mph - N/A   Clear
11:35 AM 82.4 °F 85.6 °F 68.5 °F 63% 30.14 in 10.0 mi SW 8.1 mph - N/A   Clear
11:55 AM 83.3 °F 86.4 °F 68.0 °F 60% 30.14 in 7.0 mi WSW 8.1 mph - N/A   Clear
12:15 PM 83.7 °F 86.5 °F 67.5 °F 58% 30.14 in 10.0 mi WSW 6.9 mph - N/A   Clear
12:35 PM 86.2 °F 89.7 °F 68.5 °F 55% 30.14 in 10.0 mi SW 3.5 mph - N/A   Scattered Clouds
12:55 PM 87.8 °F 92.6 °F 69.6 °F 55% 30.13 in 10.0 mi West 5.8 mph - N/A   Scattered Clouds
1:15 PM 86.4 °F 90.0 °F 68.4 °F 55% 30.12 in 10.0 mi SW 4.6 mph - N/A   Scattered Clouds
1:35 PM 89.8 °F 93.8 °F 68.5 °F 49% 30.11 in 7.0 mi South 8.1 mph - N/A   Scattered Clouds
1:55 PM 89.8 °F 93.3 °F 67.5 °F 48% 30.10 in 7.0 mi West 4.6 mph - N/A   Clear
2:15 PM 89.8 °F 92.9 °F 67.3 °F 47% 30.10 in 10.0 mi Calm Calm - N/A   Clear
2:35 PM 89.8 °F 91.4 °F 64.6 °F 43% 30.10 in 7.0 mi SSW 5.8 mph - N/A   Clear
2:55 PM 89.8 °F 90.7 °F 63.3 °F 41% 30.10 in 10.0 mi SSW 5.8 mph - N/A   Clear
3:15 PM 89.8 °F 91.0 °F 63.9 °F 42% 30.10 in 10.0 mi West 5.8 mph - N/A   Clear
3:35 PM 89.8 °F 90.7 °F 63.1 °F 41% 30.09 in 10.0 mi West 4.6 mph - N/A   Clear
3:55 PM 89.8 °F 92.1 °F 65.7 °F 45% 30.08 in 10.0 mi West 5.8 mph - N/A   Clear
4:15 PM 89.8 °F 91.4 °F 64.4 °F 43% 30.08 in 10.0 mi Calm Calm - N/A   Clear
4:35 PM 89.8 °F 90.7 °F 63.0 °F 41% 30.06 in 10.0 mi West 5.8 mph - N/A   Clear
4:55 PM 89.8 °F 91.8 °F 65.1 °F 44% 30.06 in 10.0 mi SSW 4.6 mph - N/A   Clear
5:15 PM 89.8 °F 90.7 °F 63.0 °F 41% 30.06 in 10.0 mi SSE 4.6 mph - N/A   Clear
5:35 PM 89.8 °F 90.4 °F 62.2 °F 40% 30.05 in 7.0 mi SSW 8.1 mph - N/A   Clear
5:55 PM 89.8 °F 90.0 °F 61.7 °F 39% 30.06 in 10.0 mi SW 8.1 mph - N/A   Clear
6:15 PM 89.8 °F 91.4 °F 64.8 °F 43% 30.05 in 10.0 mi SW 6.9 mph - N/A   Clear
6:35 PM 89.8 °F 92.1 °F 66.0 °F 45% 30.05 in 10.0 mi SSW 8.1 mph - N/A   Clear
6:55 PM 89.4 °F 93.1 °F 68.0 °F 49% 30.05 in 10.0 mi SW 4.6 mph - N/A   Clear
7:15 PM 85.3 °F 87.6 °F 66.4 °F 53% 30.06 in 10.0 mi Calm Calm - N/A   Clear
7:35 PM 82.4 °F 85.8 °F 69.3 °F 64% 30.06 in 10.0 mi WSW 3.5 mph - N/A   Clear
7:55 PM 81.0 °F 83.4 °F 67.3 °F 63% 30.06 in 10.0 mi Calm Calm - N/A   Clear
8:15 PM 78.1 °F - 70.9 °F 78% 30.07 in 10.0 mi Calm Calm - N/A   Clear
8:35 PM 77.2 °F - 71.8 °F 83% 30.07 in 5.0 mi Calm Calm - N/A   Haze
8:55 PM 74.7 °F - 69.4 °F 84% 30.08 in 7.0 mi Calm Calm - N/A   Clear
9:15 PM 74.5 °F - 69.3 °F 84% 30.09 in 1.2 mi Calm Calm - N/A   Haze
9:35 PM 74.5 °F - 70.0 °F 86% 30.09 in 5.0 mi Calm Calm - N/A   Haze
9:55 PM 74.5 °F - 70.2 °F 86% 30.10 in 7.0 mi Calm Calm - N/A   Clear
10:15 PM 74.5 °F - 70.2 °F 86% 30.11 in 7.0 mi Calm Calm - N/A   Clear
10:35 PM 74.5 °F - 70.0 °F 86% 30.11 in 1.0 mi Calm Calm - N/A   Haze
11:15 PM 74.5 °F - 70.2 °F 86% 30.12 in 5.0 mi Calm Calm - N/A   Haze
11:35 PM 72.7 °F - 68.7 °F 87% 30.12 in 7.0 mi Calm Calm - N/A   Clear
11:55 PM 74.5 °F - 70.5 °F 87% 30.12 in 7.0 mi Calm Calm - N/A   Clear